Weather observations for the past three days for
Bogue Field Marine Corps Auxiliary Field
Metric (Imperial)
Date Time (edt) Wind (kph) Vis. (km) Weather Sky Cond. Temperature (ºC) Relative Humidity Wind Chill (°C) Heat Index (°C) Pressure Precipitation (cm)
Air Dwpt 6 hour altimeter (cm) sea level (mb) 1 hr 3 hr 6 hr
Max. Min.
21 13:57 SE 17 12.87 Overcast SCT050 OVC080 28.3 23.3 29.4 25.6 74% 32 76.76 1023.6
21 12:57 SE 24 12.87 Mostly Cloudy BKN060 28.3 22.8 72% 32 76.81 1024.4
21 11:57 SE 20 12.87 Mostly Cloudy FEW018 SCT046 BKN065 28.9 23.3 72% 33 76.81 1024.4
21 10:57 E 19 G 31 11.27 Overcast FEW024 BKN034 OVC045 28.3 22.8 72% 32 76.81 1024.4
21 09:57 E 15 11.27 Overcast OVC033 27.8 22.2 72% 30 76.81 1024.3
21 08:57 E 15 11.27 Overcast OVC037 27.2 22.2 74% 30 76.81 1024.3
21 07:57 NE 11 12.87 Fair CLR 25.6 20 25.6 21.7 71% 27 76.81 1024.4
21 06:57 NE 7 12.87 Fair CLR 22.8 18.9 79% 76.81 1024.2
21 05:57 NE 7 11.27 Fair CLR 22.2 18.3 79% 76.81 1024.2
21 04:57 NE 7 14.48 Fair CLR 22.2 18.3 79% 76.78 1024.0
21 03:57 NE 9 14.48 Fair CLR 23.9 18.9 74% 25 76.81 1024.2
21 02:57 E 13 12.87 Fair CLR 24.4 19.4 74% 25 76.84 1024.7
21 01:57 E 20 14.48 Fair CLR 24.4 18.9 26.1 24.4 72% 25 76.86 1025.1
21 00:57 E 15 14.48 Fair CLR 25 18.9 69% 26 76.89 1025.2
20 23:57 E 13 14.48 Fair CLR 25 18.9 69% 26 76.91 1025.6
20 22:57 E 15 14.48 Partly Cloudy SCT030 SCT036 25 19.4 71% 26 76.91 1025.8
20 21:57 E 17 12.87 Light Rain FEW025 BKN050 25.6 20.6 74% 27 76.89 1025.5
20 20:57 E 11 14.48 Fair CLR 25.6 19.4 69% 27 76.89 1025.3
20 19:57 SE 17 11.27 Fair CLR 26.1 19.4 29.4 26.1 67% 27 76.89 1025.2
20 17:57 SE 17 12.87 Fair CLR 28.3 17.8 53% 29 76.86 1025.1
20 16:57 E 20 12.87 Fair CLR 28.3 18.9 57% 30 76.94 1025.9
20 15:57 SE 22 12.87 Fair CLR 28.9 18.3 53% 30 76.96 1026.4
20 14:57 SE 24 G 37 12.87 Fair CLR 28.9 18.3 53% 30 76.99 1026.7
20 13:57 SE 22 G 41 12.87 Fair CLR 28.9 17.8 29.4 25 51% 30 77.01 1027.0
20 12:57 SE 28 G 43 12.87 Fair CLR 29.4 18.3 51% 30 77.06 1027.6
20 11:57 E 24 G 39 12.87 Partly Cloudy SCT047 28.9 18.3 53% 30 77.06 1027.7
20 10:57 E 19 12.87 Partly Cloudy FEW043 SCT050 28.3 18.3 55% 29 77.06 1027.6
20 09:57 E 20 12.87 A Few Clouds FEW046 27.8 18.9 58% 29 77.04 1027.2
20 08:57 E 17 12.87 A Few Clouds FEW042 26.7 18.9 62% 28 77.04 1027.3
20 07:57 NE 9 12.87 Fair CLR 25 18.3 25 21.7 66% 26 77.01 1026.9
20 06:57 NE 7 12.87 Fair CLR 22.2 17.8 76% 76.99 1026.6
20 05:57 NE 7 12.87 Fair CLR 21.7 17.2 76% 76.94 1026.2
20 04:57 E 15 14.48 Fair CLR 23.9 17.2 66% 25 76.91 1025.6
20 03:57 E 15 14.48 A Few Clouds FEW038 24.4 17.2 64% 25 76.91 1025.6
20 02:57 E 19 14.48 Fair CLR 24.4 17.8 67% 25 76.89 1025.4
20 01:57 E 17 14.48 Fair CLR 25 18.3 26.1 25 66% 26 76.94 1026.0
20 00:57 E 17 14.48 Partly Cloudy SCT036 25 18.3 66% 26 76.94 1026.1
19 23:57 SE 15 14.48 Partly Cloudy SCT033 SCT046 25 18.9 69% 26 76.99 1026.6
19 22:57 SE 19 14.48 Partly Cloudy FEW032 SCT042 25.6 18.9 67% 27 77.01 1027.0
19 21:57 E 20 14.48 Mostly Cloudy FEW031 SCT040 BKN055 25.6 19.4 69% 27 76.99 1026.6
19 20:57 E 20 14.48 A Few Clouds FEW038 25.6 19.4 69% 27 76.94 1026.1
19 19:57 E 19 G 31 11.27 Partly Cloudy FEW037 SCT060 26.1 19.4 30 26.1 67% 27 76.94 1026.1
19 18:57 SE 20 G 31 12.87 Fair CLR 27.2 20 65% 29 76.94 1026.1
19 17:57 E 24 12.87 Fair CLR 27.8 19.4 60% 29 76.94 1025.9
19 16:57 E 26 G 37 12.87 Fair CLR 28.9 19.4 57% 30 76.94 1025.9
19 15:57 E 24 G 37 12.87 Fair CLR 28.9 20 59% 31 76.96 1026.4
19 14:57 SE 24 12.87 Fair CLR 29.4 19.4 55% 31 76.99 1026.7
19 13:57 E 24 12.87 Fair CLR 28.9 20 30 24.4 59% 31 76.99 1026.7
19 12:57 E 24 12.87 Fair CLR 29.4 20 57% 31 77.01 1027.1
19 11:57 E 22 12.87 Fair CLR 28.9 19.4 57% 30 77.01 1027.0
19 10:57 E 19 12.87 Fair CLR 28.3 19.4 59% 30 77.01 1026.9
19 09:57 E 24 G 33 12.87 Fair CLR 27.8 18.9 58% 29 76.99 1026.7
19 08:57 E 20 12.87 A Few Clouds FEW040 27.2 18.9 61% 28 76.99 1026.6
19 07:57 NE 13 12.87 Overcast SCT029 BKN041 OVC050 24.4 18.9 25 21.7 72% 25 76.96 1026.3
19 06:57 NE 9 12.87 A Few Clouds FEW037 22.8 18.3 76% 76.94 1025.9
19 05:57 NE 7 12.87 A Few Clouds FEW031 21.7 18.3 81% 76.86 1025.2
19 04:57 NE 6 14.48 Fair CLR 22.2 18.3 79% 76.84 1024.8
19 03:57 E 7 14.48 Overcast OVC050 24.4 18.9 72% 25 76.81 1024.3
19 02:57 NE 9 14.48 Overcast FEW033 SCT042 OVC050 22.8 18.3 76% 76.81 1024.2
19 01:57 NE 9 14.48 Mostly Cloudy FEW030 BKN038 BKN049 22.2 17.8 26.1 22.2 76% 76.81 1024.5
19 00:57 NE 9 14.48 Fair CLR 22.2 17.2 73% 76.81 1024.5
18 23:57 NE 9 14.48 Fair CLR 22.8 17.2 71% 76.86 1024.9
18 22:57 NE 9 16.09 Fair CLR 23.3 17.8 71% 76.86 1024.9
18 21:57 NE 9 14.48 A Few Clouds FEW040 25 17.2 62% 26 76.86 1024.9
18 20:57 E 15 14.48 A Few Clouds FEW047 25.6 17.2 60% 27 76.81 1024.4
18 19:57 E 17 12.87 A Few Clouds FEW039 25.6 18.3 28.9 25.6 64% 27 76.78 1024.0
18 18:57 SE 19 12.87 Fair CLR 26.7 18.3 60% 28 76.78 1023.9
18 17:57 SE 19 12.87 Fair CLR 27.2 17.8 57% 28 76.76 1023.7
18 16:57 E 22 12.87 Fair CLR 27.8 17.2 53% 28 76.78 1024.1
18 15:57 E 28 G 41 12.87 Fair CLR 28.9 18.3 53% 30 76.84 1024.6
18 14:57 E 28 G 43 12.87 Fair CLR 27.8 18.3 56% 29 76.84 1024.6
Date Time (edt) Wind (kph) Vis. (km) Weather Sky Cond. Air Dwpt Max. Min. Relative Humidity Wind Chill (°C) Heat Index (°C) altimeter (cm) sea level (mb) 1 hr 3 hr 6 hr
6 hour
Temperature (ºC) Pressure Precipitation (cm)